Weather in Yumanay

Russia / Chuvash Republic     55°37′23″N   46°41′59″E
temp.,
°C
wind,
m/s
gust,
m/s
humid.,
%
clouds,
%
prec.,
mm/h
press.,
hPa
HPBL,
m
17 april, sat
sat1700:00+7ene5128346 0.0 1025310
03:00+5ene411797 0.0 1026261
06:00+4ene411735 0.0 1026300
09:00+9ene69575 0.0 1026550
12:00+13ene67485 0.0 1025962
15:00+13ene67370 0.0 10251125
18:00+10ene510510 0.0 1024452
21:00+6ene512720 0.0 1024335
18 april, sun
sun1800:00+4ene412830 0.0 1023303
03:00+3ene411870 0.0 1023235
06:00+3ene410825 0.0 1023284
09:00+9ene58573 0.0 1023760
12:00+12ene67445 0.0 10221346
15:00+13ene67415 0.0 10231733
18:00+10ene5105597 0.0 1023539
21:00+5ene7137482 0.0 1025565
19 april, mon
mon1900:00+4ene61268100 0.0 1026535
03:00+2ene51263100 0.0 1027473
06:00+1ene61368100 0.0 1027633
09:00+4e81251100 0.0 1028894
12:00+6e81137100 0.0 10291443
15:00+7e81137100 0.0 10281639
18:00+5e61142100 0.0 10291157
21:00+3e6154386 0.0 1030667
20 april, tue
tue2000:00+2e6154994 0.0 1030554
03:000e6145726 0.0 1030446
06:00+1e614616 0.0 1031520
09:00+5ese711428 0.0 1031985
12:00+8ese810350 0.0 10301287
15:00+9ese7103491 0.0 10281451
18:00+7ese71238100 0.0 10271011
21:00+6ese71540100 0.0 1026913
21 april, wed
wed2100:00+5se81645100 0.0 1025860
03:00+4se81851100 0.0 1024779
06:00+3se81756100 0.1 1022796
09:00+1se81983100 1.7 1022743
12:00+2se91988100 1.4 1022870
15:00+4sse91779100 1.4 1021887
18:00+3sse81684100 0.0 1021743
21:00+4sse71690100 0.0 1022739